DLH743 RJBB-EDDM

Flight info

Callsign DLH743
Flight time 13h 28m
Altitude 34000
Route MAIKO OSRIX GUMID SOUJA Y324 STAGE Y38 SAPRA G585 SEL Y697 AGAVO/K0906S1040 A591 IKEKA W4 HCH W200 DOVIV W55 PAMRU/K0917S1100 W34 LADIX B339 ASILA A575 UPREK W28 LAGEB W66 NUKTI B215 POVEK/K0907S1160 B215 KABDO W119 GOBOK A343 RULAD/K0902F380 M610 ARBOL Z621 GENDI N147 PIDWO/K0913F400 N147 OTBOR/N0493F400 A480 TIMGA B476 METKA L88 RASAM N199 EDATA M11 MATAL DCT REBLO UR317 TBN UM11 CRM UL746 ODERO DCT LUGEB DCT MOPUG DCT SUNIS DCT AMADI Q113 NAPSA NAPSA4A
Aircraft A359/H-SDE2E3GHIJ3J4J5LM1ORWXY/LB1D1

Departure

Time 2026-04-30 21:06
Airport Kansai International Airport (RJBB)

Arrival

Time 2026-05-01 10:35
Airport Munich Airport (EDDM)
Time Latitude Longitude Altitude Speed Heading
2026-04-30 20:01 34.43001 135.23980 25 ft 0 kts 321°
2026-04-30 20:48 34.42980 135.24001 30 ft 4 kts 321°
2026-04-30 20:48 34.42959 135.24022 30 ft 4 kts 321°
2026-04-30 20:48 34.42940 135.24040 30 ft 4 kts 303°
2026-04-30 20:48 34.42938 135.24060 30 ft 4 kts 222°
2026-04-30 20:49 34.42959 135.24080 30 ft 4 kts 227°
2026-04-30 20:49 34.42965 135.24089 30 ft 0 kts 231°
2026-04-30 20:54 34.42947 135.24062 26 ft 7 kts 231°
2026-04-30 20:54 34.42917 135.24017 28 ft 7 kts 230°
2026-04-30 20:55 34.42831 135.24003 27 ft 7 kts 195°
2026-04-30 20:55 34.42785 135.23966 28 ft 9 kts 225°
2026-04-30 20:55 34.42744 135.23906 29 ft 10 kts 231°
2026-04-30 20:56 34.42658 135.23777 31 ft 11 kts 232°
2026-04-30 20:56 34.42610 135.23705 31 ft 11 kts 230°
2026-04-30 20:56 34.42592 135.23578 29 ft 7 kts 317°
2026-04-30 20:57 34.42633 135.23530 29 ft 9 kts 305°
2026-04-30 20:57 34.42690 135.23479 26 ft 13 kts 319°
2026-04-30 20:57 34.42701 135.23470 29 ft 13 kts 322°
2026-04-30 20:58 34.42771 135.23402 30 ft 17 kts 321°
2026-04-30 20:58 34.42888 135.23288 27 ft 15 kts 321°
2026-04-30 20:58 34.42941 135.23236 32 ft 14 kts 321°
2026-04-30 20:58 34.43013 135.23167 28 ft 14 kts 320°
2026-04-30 20:59 34.43179 135.23004 35 ft 15 kts 321°
2026-04-30 20:59 34.43267 135.22918 35 ft 18 kts 321°
2026-04-30 21:00 34.43495 135.22697 35 ft 24 kts 321°
2026-04-30 21:00 34.43749 135.22448 34 ft 23 kts 321°
2026-04-30 21:01 34.43682 135.22192 35 ft 18 kts 231°
2026-04-30 21:01 34.43602 135.22074 35 ft 18 kts 231°
2026-04-30 21:01 34.43440 135.21832 35 ft 19 kts 231°
2026-04-30 21:02 34.43358 135.21711 35 ft 19 kts 231°
2026-04-30 21:02 34.43275 135.21588 35 ft 19 kts 230°
2026-04-30 21:02 34.43192 135.21464 35 ft 19 kts 231°
2026-04-30 21:02 34.43109 135.21340 35 ft 19 kts 231°
2026-04-30 21:03 34.43024 135.21214 35 ft 19 kts 231°
2026-04-30 21:03 34.42939 135.21086 35 ft 20 kts 231°
2026-04-30 21:03 34.42852 135.20959 35 ft 20 kts 230°
2026-04-30 21:03 34.42773 135.20841 35 ft 15 kts 231°
2026-04-30 21:04 34.42770 135.20734 34 ft 12 kts 308°
2026-04-30 21:04 34.42838 135.20660 31 ft 11 kts 321°
2026-04-30 21:04 34.42888 135.20667 31 ft 3 kts 41°
2026-04-30 21:05 34.42902 135.20686 31 ft 0 kts 51°
2026-04-30 21:05 34.42906 135.20692 31 ft 9 kts 51°
2026-04-30 21:05 34.43074 135.20944 34 ft 67 kts 51°
2026-04-30 21:06 34.43484 135.21555 39 ft 118 kts 51°
2026-04-30 21:06 34.44104 135.22481 51 ft 161 kts 52°
2026-04-30 21:06 34.44786 135.23475 709 ft 149 kts 51°
2026-04-30 21:06 34.45498 135.24469 1028 ft 165 kts 49°
2026-04-30 21:07 34.46566 135.25178 1210 ft 190 kts 11°
2026-04-30 21:07 34.47939 135.24925 1353 ft 215 kts 336°
2026-04-30 21:07 34.49158 135.23735 1537 ft 236 kts 318°
2026-04-30 21:07 34.50462 135.22429 1698 ft 256 kts 324°
2026-04-30 21:08 34.51905 135.21067 2048 ft 267 kts 322°
2026-04-30 21:08 34.53375 135.19640 2537 ft 274 kts 320°
2026-04-30 21:08 34.54870 135.18150 3016 ft 281 kts 318°
2026-04-30 21:08 34.56376 135.16624 3557 ft 283 kts 316°
2026-04-30 21:09 34.57883 135.15086 4125 ft 284 kts 315°
2026-04-30 21:09 34.59391 135.13519 4672 ft 284 kts 311°
2026-04-30 21:09 34.60569 135.11650 5155 ft 276 kts 288°
2026-04-30 21:09 34.60962 135.09444 5747 ft 263 kts 268°
2026-04-30 21:10 34.61018 135.07243 6416 ft 259 kts 266°
2026-04-30 21:10 34.61047 135.05052 6987 ft 260 kts 265°
2026-04-30 21:10 34.61078 135.02848 7545 ft 262 kts 266°
2026-04-30 21:10 34.61113 135.00631 8150 ft 264 kts 266°
2026-04-30 21:11 34.61159 134.98392 8724 ft 267 kts 268°
2026-04-30 21:11 34.61275 134.96124 9302 ft 270 kts 270°
2026-04-30 21:11 34.61439 134.93846 9869 ft 272 kts 270°
2026-04-30 21:11 34.61618 134.91542 10304 ft 279 kts 270°
2026-04-30 21:12 34.61799 134.89139 10523 ft 293 kts 270°
2026-04-30 21:12 34.61978 134.86610 10747 ft 307 kts 270°
2026-04-30 21:12 34.62157 134.83967 11001 ft 321 kts 270°
2026-04-30 21:12 34.62339 134.81200 11219 ft 335 kts 270°
2026-04-30 21:13 34.62465 134.78333 11454 ft 344 kts 265°
2026-04-30 21:13 34.62388 134.75411 11869 ft 348 kts 263°
2026-04-30 21:13 34.62243 134.72477 12383 ft 349 kts 262°
2026-04-30 21:13 34.62058 134.69534 12893 ft 350 kts 261°
2026-04-30 21:14 34.61852 134.66580 13397 ft 352 kts 261°
2026-04-30 21:14 34.61638 134.63613 13846 ft 353 kts 261°
2026-04-30 21:14 34.61423 134.60637 14319 ft 354 kts 261°
2026-04-30 21:14 34.61211 134.57651 14748 ft 356 kts 260°
2026-04-30 21:15 34.60999 134.54651 15223 ft 357 kts 260°
2026-04-30 21:15 34.60790 134.51646 15698 ft 358 kts 260°
2026-04-30 21:15 34.60581 134.48636 16194 ft 358 kts 260°
2026-04-30 21:15 34.60371 134.45617 16658 ft 359 kts 259°
2026-04-30 21:16 34.60161 134.42603 17193 ft 358 kts 259°
2026-04-30 21:16 34.59950 134.39580 17671 ft 360 kts 259°
2026-04-30 21:16 34.59736 134.36546 18119 ft 362 kts 258°
2026-04-30 21:16 34.59519 134.33497 18504 ft 363 kts 258°
2026-04-30 21:17 34.59303 134.30471 18876 ft 366 kts 258°
2026-04-30 21:17 34.59080 134.27347 19256 ft 368 kts 258°
2026-04-30 21:17 34.58857 134.24251 19664 ft 370 kts 257°
2026-04-30 21:17 34.58632 134.21177 20141 ft 372 kts 257°
2026-04-30 21:18 34.58401 134.18037 20563 ft 374 kts 257°
2026-04-30 21:18 34.58168 134.14882 20950 ft 376 kts 257°
2026-04-30 21:18 34.57936 134.11717 21355 ft 377 kts 257°
2026-04-30 21:18 34.57704 134.08547 21738 ft 379 kts 257°
2026-04-30 21:19 34.57578 134.05320 22128 ft 388 kts 263°
2026-04-30 21:19 34.57858 134.02016 22561 ft 398 kts 268°
2026-04-30 21:19 34.58329 133.98683 22920 ft 403 kts 270°
2026-04-30 21:19 34.58891 133.95333 23290 ft 407 kts 271°
2026-04-30 21:20 34.59501 133.91974 23675 ft 408 kts 272°
2026-04-30 21:20 34.60122 133.88604 24015 ft 410 kts 272°
2026-04-30 21:20 34.60739 133.85219 24364 ft 412 kts 271°
2026-04-30 21:20 34.61351 133.81816 24765 ft 414 kts 271°
2026-04-30 21:21 34.62141 133.78408 25096 ft 425 kts 278°
2026-04-30 21:21 34.63339 133.75066 25427 ft 441 kts 286°
2026-04-30 21:21 34.67241 133.68967 26056 ft 473 kts 304°
2026-04-30 21:22 34.69651 133.66204 26391 ft 480 kts 306°
2026-04-30 21:22 34.77280 133.58099 27321 ft 489 kts 307°
2026-04-30 21:23 34.79857 133.55372 27595 ft 491 kts 307°
2026-04-30 21:23 34.82426 133.52623 27973 ft 491 kts 307°
2026-04-30 21:23 34.87550 133.47067 28538 ft 497 kts 307°
2026-04-30 21:24 34.90132 133.44248 28837 ft 499 kts 307°
2026-04-30 21:24 34.92719 133.41422 29223 ft 501 kts 307°
2026-04-30 21:24 34.95321 133.38579 29457 ft 504 kts 307°
2026-04-30 21:24 34.97938 133.35724 29739 ft 505 kts 307°
2026-04-30 21:25 35.03198 133.29984 30134 ft 509 kts 307°
2026-04-30 21:25 35.05843 133.27093 30337 ft 510 kts 307°
2026-04-30 21:25 35.08490 133.24194 30514 ft 512 kts 307°
2026-04-30 21:26 35.13810 133.18355 30991 ft 515 kts 307°
2026-04-30 21:26 35.16477 133.15426 31228 ft 516 kts 307°
2026-04-30 21:27 35.21807 133.09564 31780 ft 515 kts 307°
2026-04-30 21:27 35.24468 133.06633 31985 ft 516 kts 308°
2026-04-30 21:27 35.27135 133.03691 32197 ft 516 kts 307°
2026-04-30 21:28 35.32452 132.97825 32798 ft 513 kts 308°
2026-04-30 21:28 35.35098 132.94901 32982 ft 513 kts 308°
2026-04-30 21:28 35.40392 132.89037 33399 ft 512 kts 308°
2026-04-30 21:29 35.42998 132.86146 33594 ft 512 kts 308°
2026-04-30 21:29 35.50969 132.77282 33695 ft 518 kts 308°
2026-04-30 21:30 35.55780 132.70911 33706 ft 496 kts 294°
2026-04-30 21:31 35.59414 132.59665 33754 ft 461 kts 272°
2026-04-30 21:31 35.60488 132.51900 33723 ft 461 kts 270°
2026-04-30 21:32 35.61928 132.40190 33777 ft 462 kts 270°
2026-04-30 21:32 35.62915 132.32372 33734 ft 465 kts 270°
2026-04-30 21:33 35.64425 132.20588 33746 ft 465 kts 270°
2026-04-30 21:34 35.65430 132.12696 33748 ft 469 kts 271°
2026-04-30 21:34 35.66937 132.00778 33751 ft 469 kts 271°
2026-04-30 21:35 35.67929 131.92888 33759 ft 471 kts 271°
2026-04-30 21:35 35.68925 131.84904 33757 ft 473 kts 271°
2026-04-30 21:36 35.69918 131.76904 33792 ft 473 kts 272°
2026-04-30 21:37 35.71903 131.60771 33764 ft 479 kts 272°
2026-04-30 21:37 35.72727 131.54034 33780 ft 479 kts 272°
2026-04-30 21:38 35.73715 131.45886 33772 ft 483 kts 272°
2026-04-30 21:38 35.74705 131.37708 33770 ft 482 kts 272°
2026-04-30 21:39 35.75686 131.29538 33782 ft 483 kts 273°
2026-04-30 21:39 35.76665 131.21318 33780 ft 486 kts 273°
2026-04-30 21:40 35.77636 131.13143 33813 ft 486 kts 273°
2026-04-30 21:40 35.78612 131.04872 33786 ft 488 kts 274°
2026-04-30 21:41 35.79583 130.96592 33787 ft 488 kts 274°
2026-04-30 21:41 35.80548 130.88308 33798 ft 489 kts 274°
2026-04-30 21:42 35.81511 130.79992 33784 ft 491 kts 274°
2026-04-30 21:42 35.82468 130.71692 33791 ft 488 kts 274°
2026-04-30 21:43 35.83494 130.63423 33796 ft 488 kts 275°
2026-04-30 21:43 35.84565 130.55167 33801 ft 488 kts 275°
2026-04-30 21:44 35.85624 130.46899 33829 ft 488 kts 275°
2026-04-30 21:44 35.86667 130.38620 33803 ft 490 kts 275°
2026-04-30 21:45 35.87704 130.30311 33806 ft 490 kts 275°
2026-04-30 21:45 35.88729 130.22054 33814 ft 490 kts 275°
2026-04-30 21:46 35.89756 130.13729 33810 ft 491 kts 275°
2026-04-30 21:46 35.90778 130.05417 33815 ft 489 kts 275°
2026-04-30 21:47 35.91790 129.97121 33820 ft 489 kts 275°
2026-04-30 21:47 35.92796 129.88822 33817 ft 489 kts 275°
2026-04-30 21:48 35.93800 129.80512 33836 ft 489 kts 275°
2026-04-30 21:48 35.94797 129.72206 33830 ft 490 kts 275°
2026-04-30 21:49 35.95786 129.63891 33819 ft 489 kts 276°
2026-04-30 21:49 35.96771 129.55566 33828 ft 490 kts 276°
2026-04-30 21:50 35.98481 129.47412 33834 ft 495 kts 290°
2026-04-30 21:50 36.01953 129.40038 33834 ft 499 kts 302°
2026-04-30 21:51 36.05965 129.33024 33842 ft 500 kts 303°
2026-04-30 21:51 36.10042 129.26072 33848 ft 499 kts 304°
2026-04-30 21:52 36.14089 129.19103 33856 ft 498 kts 303°
2026-04-30 21:52 36.18106 129.12121 33862 ft 498 kts 303°
2026-04-30 21:53 36.22081 129.05176 33862 ft 496 kts 304°
2026-04-30 21:53 36.26071 128.98199 33869 ft 495 kts 303°
2026-04-30 21:54 36.30048 128.91228 33870 ft 496 kts 303°
2026-04-30 21:54 36.34022 128.84252 33868 ft 494 kts 304°
2026-04-30 21:55 36.37990 128.77280 33871 ft 494 kts 304°
2026-04-30 21:55 36.41939 128.70308 33869 ft 494 kts 304°
2026-04-30 21:56 36.45889 128.63323 33871 ft 493 kts 304°
2026-04-30 21:56 36.49827 128.56348 33871 ft 493 kts 304°
2026-04-30 21:57 36.53763 128.49367 33865 ft 493 kts 304°
2026-04-30 21:57 36.57713 128.42345 33867 ft 496 kts 304°
2026-04-30 21:58 36.61669 128.35298 33870 ft 497 kts 304°
2026-04-30 21:58 36.65638 128.28248 33873 ft 497 kts 304°
2026-04-30 21:59 36.69643 128.21230 33874 ft 497 kts 304°
2026-04-30 22:00 36.75632 128.10742 33882 ft 492 kts 304°
2026-04-30 22:00 36.81549 128.00289 33887 ft 492 kts 304°
2026-04-30 22:01 36.85486 127.93321 33886 ft 491 kts 305°
2026-04-30 22:01 36.89416 127.86354 33891 ft 490 kts 304°
2026-04-30 22:02 36.93324 127.79390 33893 ft 489 kts 304°
2026-04-30 22:02 36.97243 127.72420 33896 ft 490 kts 304°
2026-04-30 22:03 37.01126 127.65499 33891 ft 488 kts 305°
2026-04-30 22:03 37.05026 127.58535 33891 ft 487 kts 305°
2026-04-30 22:04 37.08908 127.51575 33891 ft 487 kts 305°
2026-04-30 22:05 37.14721 127.41137 33889 ft 485 kts 305°
2026-04-30 22:05 37.18574 127.34199 33885 ft 484 kts 305°
2026-04-30 22:06 37.22414 127.27263 33893 ft 484 kts 305°
2026-04-30 22:06 37.28168 127.16850 33890 ft 482 kts 306°
2026-04-30 22:07 37.31981 127.09937 33887 ft 482 kts 306°
2026-04-30 22:07 37.35795 127.03012 33907 ft 481 kts 305°
2026-04-30 22:08 37.39301 126.95836 33895 ft 482 kts 296°
2026-04-30 22:08 37.41158 126.87790 33888 ft 484 kts 278°
2026-04-30 22:09 37.41417 126.79302 33885 ft 487 kts 272°
2026-04-30 22:09 37.41351 126.70773 33887 ft 488 kts 271°
2026-04-30 22:10 37.41255 126.62244 33891 ft 488 kts 272°
2026-04-30 22:10 37.41186 126.53720 33910 ft 487 kts 272°
2026-04-30 22:11 37.41098 126.40959 33911 ft 486 kts 272°
2026-04-30 22:12 37.41040 126.32462 33912 ft 486 kts 272°
2026-04-30 22:12 37.40974 126.23967 33889 ft 486 kts 274°
2026-04-30 22:13 37.40899 126.15550 33910 ft 482 kts 274°
2026-04-30 22:13 37.40820 126.07129 33914 ft 481 kts 273°
2026-04-30 22:14 37.40736 125.98705 33913 ft 482 kts 273°
2026-04-30 22:14 37.40645 125.90276 33913 ft 482 kts 273°
2026-04-30 22:15 37.40547 125.81851 33919 ft 482 kts 273°
2026-04-30 22:15 37.40444 125.73430 33909 ft 482 kts 274°
2026-04-30 22:16 37.40334 125.65017 33928 ft 481 kts 274°
2026-04-30 22:17 37.40099 125.48192 33917 ft 480 kts 274°
2026-04-30 22:17 37.39902 125.35657 33933 ft 476 kts 274°
2026-04-30 22:18 37.39699 125.23158 33914 ft 476 kts 275°
2026-04-30 22:19 37.39504 125.12120 33935 ft 472 kts 275°
2026-04-30 22:20 37.39285 124.99745 33940 ft 472 kts 275°
2026-04-30 22:20 37.39047 124.87426 33942 ft 468 kts 276°
2026-04-30 22:21 37.38887 124.79236 33942 ft 468 kts 276°
2026-04-30 22:21 37.38717 124.71055 33930 ft 468 kts 275°
2026-04-30 22:22 37.38539 124.62893 33945 ft 465 kts 275°
2026-04-30 22:22 37.38357 124.54763 33944 ft 465 kts 275°
2026-04-30 22:23 37.38034 124.46622 33920 ft 471 kts 269°
2026-04-30 22:23 37.36232 124.38618 33947 ft 485 kts 252°
2026-04-30 22:24 37.32866 124.31173 33949 ft 493 kts 245°
2026-04-30 22:24 37.29169 124.23888 33952 ft 494 kts 245°
2026-04-30 22:25 37.25452 124.16643 33945 ft 492 kts 245°
2026-04-30 22:25 37.21754 124.09428 33953 ft 492 kts 244°
2026-04-30 22:26 37.16020 123.98733 34042 ft 493 kts 244°
2026-04-30 22:27 37.12266 123.91571 34049 ft 490 kts 245°
2026-04-30 22:27 37.06754 123.80815 34057 ft 488 kts 245°
2026-04-30 22:28 37.01247 123.70147 34061 ft 489 kts 245°
2026-04-30 22:29 36.93830 123.55882 34057 ft 489 kts 245°
2026-04-30 22:30 36.86759 123.41454 34064 ft 476 kts 256°
2026-04-30 22:31 36.85077 123.29775 34062 ft 445 kts 281°
2026-04-30 22:32 36.87085 123.18728 34057 ft 433 kts 292°
2026-04-30 22:32 36.88865 123.11542 34063 ft 433 kts 293°
2026-04-30 22:33 36.93246 122.93533 34060 ft 433 kts 292°
2026-04-30 22:35 36.97528 122.75529 34058 ft 431 kts 292°
2026-04-30 22:36 37.01763 122.57611 34055 ft 429 kts 292°
2026-04-30 22:37 37.05119 122.43317 34063 ft 427 kts 291°
2026-04-30 22:38 37.10477 122.30459 34056 ft 413 kts 315°
2026-04-30 22:39 37.16665 122.22999 34059 ft 412 kts 311°
2026-04-30 22:39 37.20803 122.13493 34060 ft 421 kts 295°
2026-04-30 22:40 37.23559 122.03011 34055 ft 421 kts 292°
2026-04-30 22:41 37.27981 121.85616 34058 ft 418 kts 293°
2026-04-30 22:43 37.33290 121.64883 34059 ft 413 kts 293°
2026-04-30 22:44 37.36791 121.51122 34051 ft 413 kts 294°
2026-04-30 22:45 37.41976 121.30583 34062 ft 409 kts 294°
2026-04-30 22:47 37.47362 121.10400 34065 ft 401 kts 298°
2026-04-30 22:48 37.51667 120.97421 34065 ft 402 kts 297°
2026-04-30 22:49 37.57830 120.77970 34061 ft 397 kts 297°
2026-04-30 22:51 37.64126 120.58698 34065 ft 396 kts 298°
2026-04-30 22:52 37.67807 120.49469 34059 ft 391 kts 304°
2026-04-30 22:53 37.73206 120.37612 34058 ft 390 kts 304°
2026-04-30 22:53 37.77259 120.28715 34064 ft 389 kts 304°
2026-04-30 22:55 37.83977 120.13884 34055 ft 389 kts 304°
2026-04-30 22:56 37.89336 120.02002 34054 ft 388 kts 303°
2026-04-30 22:57 37.96010 119.87142 34059 ft 388 kts 303°
2026-04-30 22:58 38.00885 119.76247 34056 ft 388 kts 303°
2026-04-30 22:59 38.08842 119.58381 34052 ft 388 kts 303°
2026-05-01 07:23 40.93692 41.67214 40031 ft 452 kts 270°
2026-05-01 07:24 40.94176 41.54762 39995 ft 452 kts 270°
2026-05-01 07:24 40.94492 41.46444 40020 ft 453 kts 270°
2026-05-01 07:25 40.94794 41.38128 40023 ft 453 kts 270°
2026-05-01 07:25 40.95099 41.29795 40024 ft 453 kts 270°
2026-05-01 07:26 40.95401 41.21459 40014 ft 453 kts 270°
2026-05-01 07:26 40.95692 41.13134 40003 ft 453 kts 270°
2026-05-01 07:27 40.95979 41.04804 39969 ft 452 kts 270°
2026-05-01 07:27 40.96259 40.96467 39977 ft 454 kts 270°
2026-05-01 07:28 40.96529 40.88132 39971 ft 454 kts 270°
2026-05-01 07:28 40.96798 40.79840 39975 ft 454 kts 270°
2026-05-01 07:29 40.97061 40.71495 39964 ft 453 kts 270°
2026-05-01 07:29 40.97317 40.63154 39961 ft 453 kts 270°
2026-05-01 07:30 40.97566 40.54827 39953 ft 453 kts 270°
2026-05-01 07:30 40.97810 40.46500 39954 ft 453 kts 270°
2026-05-01 07:31 40.98047 40.38177 39951 ft 452 kts 270°
2026-05-01 07:32 40.98617 40.17383 39957 ft 452 kts 270°
2026-05-01 07:33 40.98934 40.04894 39972 ft 452 kts 270°
2026-05-01 07:33 40.99234 39.92406 39988 ft 452 kts 269°
2026-05-01 07:34 40.99578 39.79942 39991 ft 453 kts 273°
2026-05-01 07:35 41.00276 39.71702 39995 ft 453 kts 274°
2026-05-01 07:35 41.01067 39.63423 39987 ft 453 kts 275°
2026-05-01 07:36 41.01869 39.55144 39984 ft 453 kts 275°
2026-05-01 07:36 41.02658 39.46865 39979 ft 453 kts 275°
2026-05-01 07:37 41.03820 39.34443 39961 ft 453 kts 274°
2026-05-01 07:37 41.04587 39.26163 39965 ft 453 kts 274°
2026-05-01 07:38 41.05347 39.17881 39966 ft 453 kts 274°
2026-05-01 07:39 41.06493 39.05457 39966 ft 453 kts 274°
2026-05-01 07:39 41.07636 38.93035 39971 ft 453 kts 274°
2026-05-01 07:40 41.08390 38.84755 39991 ft 452 kts 274°
2026-05-01 07:40 41.09138 38.76458 39988 ft 453 kts 274°
2026-05-01 07:41 41.09882 38.68167 39995 ft 453 kts 274°
2026-05-01 07:42 41.10959 38.55760 40001 ft 453 kts 274°
2026-05-01 07:42 41.11648 38.47459 40007 ft 453 kts 274°
2026-05-01 07:43 41.12330 38.39167 40010 ft 451 kts 274°
2026-05-01 07:43 41.13349 38.26749 40006 ft 451 kts 274°
2026-05-01 07:44 41.14706 38.10187 40003 ft 451 kts 274°
2026-05-01 07:45 41.15372 38.01916 39999 ft 451 kts 273°
2026-05-01 07:45 41.16033 37.93643 40004 ft 451 kts 273°
2026-05-01 07:46 41.16695 37.85368 40008 ft 451 kts 274°
2026-05-01 07:47 41.17754 37.72965 40011 ft 451 kts 274°
2026-05-01 07:47 41.18457 37.64696 40014 ft 450 kts 274°
2026-05-01 07:48 41.19293 37.52284 40011 ft 450 kts 272°
2026-05-01 07:48 41.19837 37.44006 40005 ft 450 kts 273°
2026-05-01 07:49 41.20772 37.31585 40010 ft 450 kts 273°
2026-05-01 07:50 41.21383 37.23372 40011 ft 450 kts 273°
2026-05-01 07:50 41.22335 37.10975 40007 ft 450 kts 273°
2026-05-01 07:51 41.22980 37.02718 40005 ft 450 kts 273°
2026-05-01 07:52 41.23930 36.90325 40007 ft 449 kts 273°
2026-05-01 07:52 41.24550 36.82083 40014 ft 448 kts 273°
2026-05-01 07:53 41.25471 36.69701 40026 ft 449 kts 273°
2026-05-01 07:53 41.26078 36.61438 40030 ft 449 kts 273°
2026-05-01 07:55 41.30000 36.41225 40002 ft 455 kts 285°
2026-05-01 07:56 41.35106 36.21301 40015 ft 454 kts 285°
2026-05-01 07:57 41.38121 36.09344 40021 ft 454 kts 285°
2026-05-01 07:58 41.42108 35.93429 40028 ft 453 kts 284°
2026-05-01 07:59 41.46074 35.77496 40027 ft 452 kts 284°
2026-05-01 08:00 41.51664 35.54849 40035 ft 453 kts 284°
2026-05-01 08:01 41.55576 35.38873 40053 ft 453 kts 284°
2026-05-01 08:02 41.58503 35.26847 40028 ft 454 kts 284°
2026-05-01 08:03 41.61415 35.14815 40027 ft 454 kts 284°
2026-05-01 08:03 41.64315 35.02775 40033 ft 454 kts 284°
2026-05-01 08:04 41.68161 34.86707 40039 ft 453 kts 284°
2026-05-01 08:05 41.71030 34.74645 40046 ft 453 kts 284°
2026-05-01 08:06 41.73882 34.62606 40048 ft 452 kts 284°
2026-05-01 08:07 41.77660 34.46543 40044 ft 452 kts 284°
2026-05-01 08:08 41.80464 34.34539 40050 ft 452 kts 284°
2026-05-01 08:09 41.84199 34.18450 40052 ft 452 kts 283°
2026-05-01 08:09 41.86057 34.10402 40064 ft 451 kts 283°
2026-05-01 08:10 41.89761 33.94289 40068 ft 452 kts 283°
2026-05-01 08:11 41.93444 33.78146 40082 ft 453 kts 283°
2026-05-01 08:12 41.96157 33.65984 40072 ft 453 kts 281°
2026-05-01 08:13 41.98471 33.53699 40082 ft 452 kts 280°
2026-05-01 08:13 42.00775 33.41398 40079 ft 453 kts 281°
2026-05-01 08:14 42.02336 33.33201 40088 ft 452 kts 281°
2026-05-01 08:14 42.03895 33.25002 40089 ft 452 kts 281°
2026-05-01 08:15 42.06211 33.12754 40094 ft 452 kts 281°
2026-05-01 08:16 42.07767 33.04551 40097 ft 452 kts 281°
2026-05-01 08:16 42.09439 32.96375 40103 ft 453 kts 282°
2026-05-01 08:17 42.11137 32.88207 40104 ft 453 kts 282°
2026-05-01 08:17 42.12817 32.80020 40108 ft 453 kts 282°
2026-05-01 08:18 42.14480 32.71816 40105 ft 454 kts 282°
2026-05-01 08:19 42.17785 32.55377 40113 ft 454 kts 282°
2026-05-01 08:19 42.19427 32.47152 40115 ft 454 kts 282°
2026-05-01 08:20 42.21053 32.38974 40115 ft 454 kts 282°
2026-05-01 08:20 42.22681 32.30751 40121 ft 454 kts 281°
2026-05-01 08:21 42.24306 32.22515 40121 ft 454 kts 281°
2026-05-01 08:21 42.25920 32.14273 40119 ft 454 kts 281°
2026-05-01 08:22 42.27534 32.06024 40131 ft 455 kts 281°
2026-05-01 08:22 42.29148 31.97759 40133 ft 455 kts 281°
2026-05-01 08:23 42.30755 31.89492 40144 ft 455 kts 281°
2026-05-01 08:23 42.32355 31.81231 40136 ft 454 kts 281°
2026-05-01 08:24 42.33949 31.72962 40137 ft 454 kts 281°
2026-05-01 08:24 42.35536 31.64698 40146 ft 454 kts 281°
2026-05-01 08:25 42.37114 31.56440 40140 ft 453 kts 281°
2026-05-01 08:25 42.38687 31.48176 40152 ft 454 kts 281°
2026-05-01 08:26 42.40257 31.39899 40156 ft 454 kts 281°
2026-05-01 08:26 42.41822 31.31614 40156 ft 454 kts 281°
2026-05-01 08:27 42.43379 31.23327 40159 ft 454 kts 281°
2026-05-01 08:27 42.44931 31.15031 40160 ft 455 kts 281°
2026-05-01 08:28 42.46477 31.06752 40164 ft 456 kts 281°
2026-05-01 08:28 42.48023 30.98408 40170 ft 456 kts 281°
2026-05-01 08:29 42.49558 30.90065 40172 ft 456 kts 281°
2026-05-01 08:29 42.51091 30.81705 40177 ft 457 kts 281°
2026-05-01 08:30 42.52618 30.73346 40181 ft 457 kts 281°
2026-05-01 08:30 42.54144 30.64962 40181 ft 457 kts 281°
2026-05-01 08:31 42.55660 30.56592 40188 ft 457 kts 281°
2026-05-01 08:31 42.57171 30.48210 40184 ft 457 kts 281°
2026-05-01 08:32 42.58676 30.39821 40189 ft 458 kts 281°
2026-05-01 08:32 42.60263 30.31448 40195 ft 459 kts 286°
2026-05-01 08:33 42.63125 30.23656 40192 ft 466 kts 302°
2026-05-01 08:33 42.67263 30.16823 40197 ft 470 kts 308°
2026-05-01 08:34 42.71632 30.10200 40207 ft 471 kts 308°
2026-05-01 08:34 42.76017 30.03588 40205 ft 470 kts 308°
2026-05-01 08:35 42.80371 29.96946 40209 ft 470 kts 308°
2026-05-01 08:35 42.84708 29.90280 40211 ft 470 kts 308°
2026-05-01 08:36 42.89012 29.83640 40215 ft 470 kts 308°
2026-05-01 08:36 42.93368 29.76908 40215 ft 470 kts 308°
2026-05-01 08:37 42.97674 29.70238 40221 ft 471 kts 308°
2026-05-01 08:37 43.02000 29.63524 40216 ft 471 kts 308°
2026-05-01 08:38 43.06324 29.56797 40224 ft 471 kts 308°
2026-05-01 08:38 43.10644 29.50061 40224 ft 471 kts 308°
2026-05-01 08:39 43.14261 29.44408 40227 ft 471 kts 308°
2026-05-01 08:39 43.18572 29.37657 40236 ft 471 kts 308°
2026-05-01 08:40 43.25009 29.27546 40253 ft 471 kts 308°
2026-05-01 08:40 43.29309 29.20772 40241 ft 471 kts 308°
2026-05-01 08:41 43.33612 29.13977 40246 ft 471 kts 308°
2026-05-01 08:41 43.37915 29.07168 40249 ft 471 kts 308°
2026-05-01 08:42 43.42208 29.00356 40251 ft 472 kts 308°
2026-05-01 08:42 43.46504 28.93525 40257 ft 472 kts 308°
2026-05-01 08:43 43.50799 28.86679 40260 ft 472 kts 308°
2026-05-01 08:43 43.55091 28.79822 40260 ft 472 kts 308°
2026-05-01 08:44 43.59373 28.72964 40263 ft 472 kts 308°
2026-05-01 08:44 43.63650 28.66098 40263 ft 471 kts 308°
2026-05-01 08:45 43.67921 28.59225 40242 ft 472 kts 308°
2026-05-01 08:45 43.72165 28.52298 40250 ft 471 kts 305°
2026-05-01 08:46 43.75549 28.44571 40255 ft 469 kts 296°
2026-05-01 08:46 43.78506 28.36512 40256 ft 470 kts 295°
2026-05-01 08:47 43.81385 28.28384 40265 ft 470 kts 294°
2026-05-01 08:47 43.84255 28.20267 40266 ft 470 kts 295°
2026-05-01 08:48 43.87139 28.12137 40251 ft 470 kts 295°
2026-05-01 08:48 43.90018 28.04018 40254 ft 470 kts 295°
2026-05-01 08:49 43.92896 27.95879 40264 ft 470 kts 295°
2026-05-01 08:49 43.95768 27.87732 40284 ft 470 kts 295°
2026-05-01 08:50 43.98638 27.79563 40278 ft 470 kts 295°
2026-05-01 08:50 44.01500 27.71393 40279 ft 470 kts 295°
2026-05-01 08:51 44.04356 27.63215 40287 ft 470 kts 295°
2026-05-01 08:51 44.07192 27.55068 40284 ft 471 kts 295°
2026-05-01 08:52 44.10041 27.46863 40286 ft 471 kts 295°
2026-05-01 08:52 44.12885 27.38644 40296 ft 471 kts 295°
2026-05-01 08:53 44.15725 27.30413 40298 ft 471 kts 295°
2026-05-01 08:53 44.18561 27.22174 40297 ft 471 kts 295°
2026-05-01 08:54 44.21389 27.13928 40306 ft 471 kts 295°
2026-05-01 08:54 44.24210 27.05674 40307 ft 471 kts 295°
2026-05-01 08:55 44.27026 26.97413 40316 ft 471 kts 295°
2026-05-01 08:55 44.29830 26.89161 40309 ft 470 kts 295°
2026-05-01 08:56 44.32628 26.80904 40314 ft 470 kts 295°
2026-05-01 08:56 44.35420 26.72636 40311 ft 470 kts 295°
2026-05-01 08:57 44.38207 26.64357 40321 ft 470 kts 295°
2026-05-01 08:57 44.40985 26.56081 40315 ft 470 kts 295°
2026-05-01 08:58 44.43760 26.47788 40322 ft 470 kts 295°
2026-05-01 08:58 44.46526 26.39496 40325 ft 470 kts 294°
2026-05-01 08:59 44.49272 26.31236 40325 ft 471 kts 294°
2026-05-01 08:59 44.52030 26.22915 40317 ft 471 kts 294°
2026-05-01 09:00 44.54789 26.14566 40345 ft 471 kts 294°
2026-05-01 09:00 44.57534 26.06235 40345 ft 471 kts 294°
2026-05-01 09:01 44.60285 25.97858 40348 ft 473 kts 294°
2026-05-01 09:01 44.63029 25.89474 40338 ft 473 kts 294°
2026-05-01 09:02 44.65770 25.81072 40324 ft 473 kts 294°
2026-05-01 09:02 44.68508 25.72653 40322 ft 473 kts 295°
2026-05-01 09:03 44.71238 25.64233 40303 ft 473 kts 294°
2026-05-01 09:03 44.73946 25.55855 40301 ft 473 kts 294°
2026-05-01 09:04 44.76663 25.47418 40303 ft 473 kts 294°
2026-05-01 09:04 44.79376 25.38969 40307 ft 473 kts 295°
2026-05-01 09:05 44.82080 25.30521 40304 ft 473 kts 295°
2026-05-01 09:05 44.84783 25.22049 40297 ft 473 kts 294°
2026-05-01 09:06 44.87473 25.13587 40295 ft 473 kts 294°
2026-05-01 09:06 44.90162 25.05103 40306 ft 474 kts 295°
2026-05-01 09:07 44.92851 24.96592 40297 ft 475 kts 295°
2026-05-01 09:07 44.95536 24.88064 40305 ft 475 kts 295°
2026-05-01 09:08 44.98211 24.79541 40299 ft 475 kts 295°
2026-05-01 09:08 45.00884 24.70995 40295 ft 475 kts 295°
2026-05-01 09:09 45.03553 24.62435 40295 ft 476 kts 295°
2026-05-01 09:09 45.06216 24.53864 40302 ft 476 kts 294°
2026-05-01 09:10 45.08853 24.45345 40300 ft 476 kts 295°
2026-05-01 09:10 45.11506 24.36751 40300 ft 476 kts 295°
2026-05-01 09:11 45.14153 24.28147 40302 ft 476 kts 294°
2026-05-01 09:11 45.16794 24.19533 40280 ft 476 kts 294°
2026-05-01 09:12 45.19427 24.10914 40299 ft 477 kts 295°
2026-05-01 09:12 45.22060 24.02268 40287 ft 478 kts 295°
2026-05-01 09:13 45.24688 23.93609 40295 ft 477 kts 295°
2026-05-01 09:13 45.27308 23.84945 40295 ft 477 kts 295°
2026-05-01 09:14 45.29925 23.76262 40291 ft 479 kts 295°
2026-05-01 09:14 45.32542 23.67549 40291 ft 479 kts 295°
2026-05-01 09:15 45.35133 23.58893 40294 ft 479 kts 295°
2026-05-01 09:15 45.37730 23.50186 40292 ft 479 kts 294°
2026-05-01 09:16 45.40328 23.41448 40292 ft 479 kts 294°
2026-05-01 09:17 45.44209 23.28333 40294 ft 479 kts 295°
2026-05-01 09:17 45.48069 23.15225 40281 ft 479 kts 294°
2026-05-01 09:18 45.51497 23.03524 40292 ft 481 kts 294°
2026-05-01 09:19 45.55350 22.90306 40295 ft 481 kts 294°
2026-05-01 09:20 45.59191 22.77055 40298 ft 482 kts 294°
2026-05-01 09:21 45.64304 22.59311 40304 ft 483 kts 294°
2026-05-01 09:21 45.68122 22.45973 40294 ft 482 kts 294°
2026-05-01 09:22 45.73175 22.28215 40313 ft 484 kts 294°
2026-05-01 09:23 45.76964 22.14811 40316 ft 484 kts 294°
2026-05-01 09:24 45.80739 22.01382 40320 ft 484 kts 294°
2026-05-01 09:25 45.85752 21.83439 40322 ft 484 kts 294°
2026-05-01 09:26 45.89492 21.69958 40327 ft 485 kts 294°
2026-05-01 09:26 45.93225 21.56433 40324 ft 485 kts 294°
2026-05-01 09:27 45.96921 21.42964 40320 ft 485 kts 295°
2026-05-01 09:28 45.99404 21.33873 40342 ft 485 kts 294°
2026-05-01 09:28 46.01850 21.24884 40342 ft 485 kts 294°
2026-05-01 09:29 46.05532 21.11288 40343 ft 485 kts 294°
2026-05-01 09:30 46.09197 20.97679 40339 ft 486 kts 294°
2026-05-01 09:30 46.12850 20.84033 40340 ft 486 kts 294°
2026-05-01 09:31 46.15274 20.74938 40340 ft 486 kts 294°
2026-05-01 09:32 46.18811 20.61212 40336 ft 487 kts 292°
2026-05-01 09:32 46.22168 20.47348 40347 ft 488 kts 292°
2026-05-01 09:33 46.24413 20.38107 40349 ft 487 kts 292°
2026-05-01 09:34 46.27777 20.24287 40351 ft 488 kts 292°
2026-05-01 09:34 46.31145 20.10374 40352 ft 488 kts 292°
2026-05-01 09:35 46.34490 19.96461 40357 ft 488 kts 292°
2026-05-01 09:36 46.36698 19.87230 40361 ft 488 kts 292°
2026-05-01 09:36 46.38910 19.77941 40360 ft 488 kts 292°
2026-05-01 09:37 46.41114 19.68647 40359 ft 488 kts 292°
2026-05-01 09:37 46.44407 19.54689 40363 ft 488 kts 292°
2026-05-01 09:38 46.47687 19.40698 40369 ft 488 kts 292°
2026-05-01 09:39 46.50953 19.26676 40352 ft 488 kts 292°
2026-05-01 09:39 46.53120 19.17320 40367 ft 489 kts 292°
2026-05-01 09:40 46.56359 19.03268 40370 ft 489 kts 292°
2026-05-01 09:41 46.58510 18.93879 40371 ft 489 kts 292°
2026-05-01 09:41 46.61697 18.79892 40371 ft 489 kts 292°
2026-05-01 09:42 46.63511 18.71895 40374 ft 490 kts 292°
2026-05-01 09:43 46.67743 18.53115 40352 ft 489 kts 292°
2026-05-01 09:43 46.69856 18.43677 40375 ft 490 kts 292°
2026-05-01 09:44 46.73022 18.29447 40378 ft 490 kts 292°
2026-05-01 09:45 46.75098 18.20035 40374 ft 490 kts 291°
2026-05-01 09:45 46.78223 18.05815 40377 ft 491 kts 292°
2026-05-01 09:46 46.80300 17.96324 40375 ft 491 kts 292°
2026-05-01 09:46 46.82371 17.86819 40377 ft 491 kts 292°
2026-05-01 09:47 46.84436 17.77300 40362 ft 491 kts 292°
2026-05-01 09:47 46.86488 17.67787 40377 ft 490 kts 292°
2026-05-01 09:48 46.88532 17.58279 40378 ft 490 kts 292°
2026-05-01 09:48 46.90569 17.48755 40385 ft 490 kts 292°
2026-05-01 09:49 46.92598 17.39226 40386 ft 490 kts 292°
2026-05-01 09:49 46.94615 17.29706 40391 ft 490 kts 292°
2026-05-01 09:50 46.96624 17.20180 40393 ft 489 kts 292°
2026-05-01 09:50 46.98624 17.10655 40393 ft 489 kts 292°
2026-05-01 09:51 47.00607 17.01168 40383 ft 489 kts 292°
2026-05-01 09:51 47.02590 16.91624 40390 ft 488 kts 292°
2026-05-01 09:52 47.04561 16.82103 40390 ft 488 kts 292°
2026-05-01 09:52 47.06524 16.72579 40389 ft 488 kts 292°
2026-05-01 09:53 47.08480 16.63040 40380 ft 488 kts 291°
2026-05-01 09:53 47.10427 16.53497 40393 ft 487 kts 291°
2026-05-01 09:54 47.12362 16.43970 40390 ft 487 kts 291°
2026-05-01 09:54 47.14406 16.34504 40394 ft 483 kts 297°
2026-05-01 09:55 47.16988 16.25388 40386 ft 482 kts 298°
2026-05-01 09:55 47.19657 16.16344 40386 ft 481 kts 298°
2026-05-01 09:56 47.22326 16.07319 40388 ft 482 kts 298°
2026-05-01 09:56 47.24985 15.98263 40390 ft 482 kts 298°
2026-05-01 09:57 47.27628 15.89199 40369 ft 481 kts 298°
2026-05-01 09:57 47.30260 15.80138 40386 ft 480 kts 298°
2026-05-01 09:58 47.32438 15.72612 40381 ft 480 kts 298°
2026-05-01 09:58 47.35055 15.63543 40382 ft 480 kts 298°
2026-05-01 09:59 47.37668 15.54451 40354 ft 481 kts 298°
2026-05-01 09:59 47.40272 15.45358 40373 ft 481 kts 298°
2026-05-01 10:00 47.42867 15.36255 40386 ft 481 kts 298°
2026-05-01 10:00 47.45454 15.27154 40381 ft 481 kts 298°
2026-05-01 10:01 47.48037 15.18037 40388 ft 480 kts 297°
2026-05-01 10:01 47.50594 15.08981 40375 ft 480 kts 297°
2026-05-01 10:02 47.53164 14.99831 40382 ft 481 kts 298°
2026-05-01 10:02 47.55727 14.90682 40389 ft 481 kts 297°
2026-05-01 10:03 47.58283 14.81513 40385 ft 481 kts 297°
2026-05-01 10:03 47.60828 14.72354 40384 ft 482 kts 297°
2026-05-01 10:04 47.62099 14.67764 40243 ft 482 kts 297°
2026-05-01 10:04 47.63373 14.63154 40014 ft 484 kts 297°
2026-05-01 10:04 47.64650 14.58527 39777 ft 485 kts 297°
2026-05-01 10:04 47.65928 14.53886 39544 ft 486 kts 297°
2026-05-01 10:05 47.67195 14.49270 39107 ft 482 kts 298°
2026-05-01 10:05 47.68464 14.44640 38408 ft 483 kts 298°
2026-05-01 10:05 47.69731 14.40016 37716 ft 482 kts 298°
2026-05-01 10:05 47.70986 14.35421 37124 ft 481 kts 298°
2026-05-01 10:06 47.72240 14.30826 36467 ft 480 kts 298°
2026-05-01 10:06 47.73494 14.26223 35788 ft 481 kts 298°
2026-05-01 10:06 47.74749 14.21607 35166 ft 482 kts 298°
2026-05-01 10:06 47.75999 14.16992 34667 ft 479 kts 298°
2026-05-01 10:07 47.77237 14.12411 34120 ft 476 kts 298°
2026-05-01 10:07 47.78464 14.07861 33577 ft 472 kts 298°
2026-05-01 10:07 47.79680 14.03342 33036 ft 468 kts 298°
2026-05-01 10:07 47.80880 13.98874 32569 ft 463 kts 298°
2026-05-01 10:08 47.83250 13.90040 31583 ft 456 kts 298°
2026-05-01 10:08 47.84418 13.85671 31092 ft 453 kts 298°
2026-05-01 10:08 47.85577 13.81335 30634 ft 448 kts 297°
2026-05-01 10:09 47.86712 13.77080 30086 ft 445 kts 297°
2026-05-01 10:09 47.87846 13.72820 29591 ft 440 kts 297°
2026-05-01 10:09 47.88965 13.68602 29127 ft 435 kts 297°
2026-05-01 10:09 47.90071 13.64427 28630 ft 431 kts 297°
2026-05-01 10:10 47.91165 13.60293 28172 ft 426 kts 297°
2026-05-01 10:10 47.92244 13.56204 27723 ft 422 kts 297°
2026-05-01 10:10 47.94376 13.48117 26795 ft 415 kts 297°
2026-05-01 10:11 47.95427 13.44121 26322 ft 413 kts 297°
2026-05-01 10:11 47.96471 13.40145 25870 ft 410 kts 297°
2026-05-01 10:11 47.97508 13.36194 25405 ft 408 kts 297°
2026-05-01 10:11 47.98540 13.32248 24938 ft 406 kts 297°
2026-05-01 10:12 47.99563 13.28331 24477 ft 404 kts 297°
2026-05-01 10:12 48.00582 13.24423 23996 ft 402 kts 296°
2026-05-01 10:12 48.02589 13.16696 23011 ft 396 kts 296°
2026-05-01 10:13 48.03579 13.12876 22554 ft 392 kts 296°
2026-05-01 10:13 48.04558 13.09088 22096 ft 389 kts 296°
2026-05-01 10:13 48.05528 13.05332 21626 ft 386 kts 296°
2026-05-01 10:14 48.07447 12.97888 20730 ft 381 kts 295°
2026-05-01 10:14 48.08393 12.94198 20271 ft 379 kts 295°
2026-05-01 10:14 48.09084 12.90387 19888 ft 380 kts 284°
2026-05-01 10:14 48.09532 12.86507 19466 ft 378 kts 282°
2026-05-01 10:15 48.09931 12.82619 19013 ft 377 kts 282°
2026-05-01 10:15 48.10311 12.78743 18547 ft 376 kts 281°
2026-05-01 10:15 48.10683 12.74874 18067 ft 374 kts 281°
2026-05-01 10:15 48.11047 12.71041 17617 ft 372 kts 281°
2026-05-01 10:16 48.11408 12.67208 17166 ft 370 kts 281°
2026-05-01 10:16 48.11763 12.63408 16720 ft 368 kts 281°
2026-05-01 10:16 48.12464 12.55862 15838 ft 364 kts 280°
2026-05-01 10:17 48.12809 12.52112 15391 ft 362 kts 280°
2026-05-01 10:17 48.13492 12.44676 14514 ft 359 kts 280°
2026-05-01 10:17 48.13825 12.41029 14156 ft 355 kts 280°
2026-05-01 10:18 48.14485 12.33738 13256 ft 350 kts 279°
2026-05-01 10:18 48.14766 12.30108 13044 ft 352 kts 277°
2026-05-01 10:18 48.15010 12.26451 12808 ft 353 kts 277°
2026-05-01 10:19 48.15254 12.22796 12554 ft 352 kts 277°
2026-05-01 10:19 48.15501 12.19155 12305 ft 351 kts 277°
2026-05-01 10:19 48.15749 12.15522 12053 ft 350 kts 277°
2026-05-01 10:20 48.16242 12.08300 11564 ft 347 kts 277°
2026-05-01 10:20 48.16486 12.04709 11308 ft 346 kts 277°
2026-05-01 10:20 48.16731 12.01134 11099 ft 341 kts 277°
2026-05-01 10:20 48.16961 11.97707 10919 ft 319 kts 277°
2026-05-01 10:21 48.17173 11.94502 10714 ft 305 kts 277°
2026-05-01 10:21 48.17548 11.88138 10382 ft 298 kts 274°
2026-05-01 10:21 48.17641 11.85077 10110 ft 290 kts 272°
2026-05-01 10:22 48.17618 11.79163 9565 ft 282 kts 268°
2026-05-01 10:22 48.17339 11.73320 9158 ft 281 kts 264°
2026-05-01 10:23 48.17115 11.70417 8951 ft 281 kts 263°
2026-05-01 10:23 48.16625 11.64620 8548 ft 278 kts 262°
2026-05-01 10:23 48.16384 11.61746 8351 ft 278 kts 262°
2026-05-01 10:24 48.15904 11.56044 7945 ft 274 kts 262°
2026-05-01 10:24 48.15421 11.50378 7554 ft 273 kts 262°
2026-05-01 10:25 48.14939 11.44715 7169 ft 274 kts 262°
2026-05-01 10:25 48.14899 11.39116 6777 ft 271 kts 290°
2026-05-01 10:26 48.15928 11.36809 6573 ft 267 kts 322°
2026-05-01 10:26 48.17526 11.35496 6418 ft 261 kts 343°
2026-05-01 10:26 48.20974 11.33806 6275 ft 262 kts 345°
2026-05-01 10:27 48.24442 11.32386 5965 ft 255 kts
2026-05-01 10:27 48.27488 11.34307 5958 ft 231 kts 54°
2026-05-01 10:28 48.28339 11.36219 5976 ft 213 kts 63°
2026-05-01 10:28 48.29725 11.39939 5985 ft 203 kts 64°
2026-05-01 10:28 48.30432 11.41804 5963 ft 204 kts 64°
2026-05-01 10:29 48.31595 11.45669 5793 ft 201 kts 76°
2026-05-01 10:29 48.31889 11.47668 5460 ft 191 kts 83°
2026-05-01 10:30 48.32227 11.51504 4694 ft 182 kts 85°
2026-05-01 10:30 48.32517 11.55093 4152 ft 166 kts 84°
2026-05-01 10:31 48.32778 11.58447 3738 ft 158 kts 84°
2026-05-01 10:31 48.33021 11.61536 3337 ft 140 kts 84°
2026-05-01 10:32 48.33228 11.64264 2971 ft 123 kts 83°
2026-05-01 10:32 48.33328 11.65541 2804 ft 124 kts 83°
2026-05-01 10:32 48.33528 11.68102 2431 ft 124 kts 86°
2026-05-01 10:33 48.33730 11.70710 2094 ft 128 kts 83°
2026-05-01 10:33 48.33932 11.73287 1767 ft 124 kts 85°
2026-05-01 10:34 48.34029 11.74590 1598 ft 126 kts 84°
2026-05-01 10:34 48.34130 11.75880 1492 ft 119 kts 84°
2026-05-01 10:34 48.34211 11.76951 1482 ft 87 kts 83°
2026-05-01 10:35 48.34313 11.78280 1489 ft 38 kts 83°
2026-05-01 10:35 48.34341 11.78648 1483 ft 33 kts 83°
2026-05-01 10:35 48.34376 11.78975 1484 ft 30 kts 71°
2026-05-01 10:35 48.34459 11.79208 1479 ft 18 kts 53°
2026-05-01 10:36 48.34596 11.79485 1480 ft 13 kts 53°
2026-05-01 10:36 48.34672 11.79556 1478 ft 14 kts
2026-05-01 10:36 48.34748 11.79550 1483 ft 11 kts 359°
2026-05-01 10:37 48.34791 11.79556 1481 ft 6 kts
2026-05-01 10:37 48.34797 11.79557 1481 ft 0 kts
2026-05-01 10:38 48.34835 11.79558 1479 ft 11 kts 359°
2026-05-01 10:38 48.34935 11.79544 1479 ft 16 kts 353°
2026-05-01 10:39 48.35037 11.79526 1479 ft 15 kts 353°
2026-05-01 10:39 48.35121 11.79512 1484 ft 11 kts 353°
2026-05-01 10:39 48.35192 11.79498 1478 ft 8 kts 345°
2026-05-01 10:39 48.35207 11.79439 1476 ft 7 kts 270°
2026-05-01 10:40 48.35204 11.79376 1480 ft 4 kts 263°
2026-05-01 10:40 48.35203 11.79363 1482 ft 0 kts 263°
2026-05-01 10:40 48.35202 11.79350 1481 ft 0 kts 263°